CW8468 Weather Reports


time (UTC)temp
C
wind
direction
speed
KPH
gust
KPH
rain 1hr
cm
rain 24hr
cm
rain mn
cm
humidity
%
barometer
mb
20260504221002 26 218 6.4 17.7 0.00 0.00 0.00 61 1010.4
20260504220502 26 158 6.4 14.5 0.00 0.00 0.00 62 1010.4
20260504220027 26 176 6.4 22.5 0.00 0.00 0.00 61 1010.3
20260504215502 26 176 6.4 17.7 0.00 0.00 0.00 60 1010.5
20260504215003 26 212 6.4 22.5 0.00 0.00 0.00 60 1010.5
20260504214517 26 148 6.4 22.5 0.00 0.00 0.00 59 1010.6
20260504213501 26 187 6.4 17.7 0.00 0.00 0.00 59 1010.7
20260504213026 26 183 4.8 17.7 0.00 0.00 0.00 60 1010.7
20260504212502 26 158 4.8 17.7 0.00 0.00 0.00 59 1010.7
20260504211516 27 195 6.4 14.5 0.00 0.00 0.00 58 1011.0
20260504211003 27 195 4.8 16.1 0.00 0.00 0.00 57 1010.9
20260504210503 27 185 4.8 12.9 0.00 0.00 0.00 59 1011.0
20260504210033 27 161 4.8 17.7 0.00 0.00 0.00 57 1010.9
20260504205501 27 196 6.4 17.7 0.00 0.00 0.00 57 1011.0
20260504205002 27 204 6.4 14.5 0.00 0.00 0.00 56 1011.2
20260504204516 27 152 6.4 14.5 0.00 0.00 0.00 56 1011.3
20260504204001 27 161 6.4 16.1 0.00 0.00 0.00 57 1011.3
20260504203024 27 179 6.4 16.1 0.00 0.00 0.00 56 1011.4
20260504202501 27 207 6.4 16.1 0.00 0.00 0.00 57 1011.5
20260504202000 27 104 6.4 16.1 0.00 0.00 0.00 58 1011.7
20260504201515 27 183 4.8 16.1 0.00 0.00 0.00 56 1011.8
20260504200500 27 156 4.8 19.3 0.00 0.00 0.00 57 1011.9
20260504200026 26 202 4.8 19.3 0.00 0.00 0.00 57 1012.1
20260504195502 26 162 4.8 17.7 0.00 0.00 0.00 57 1012.1
20260504195002 26 156 6.4 12.9 0.00 0.00 0.00 58 1012.2
20260504194517 26 134 6.4 11.3 0.00 0.00 0.00 56 1012.2
20260504194004 27 160 4.8 16.1 0.00 0.00 0.00 56 1012.1
20260504193503 27 108 4.8 16.1 0.00 0.00 0.00 59 1012.3
20260504193027 27 186 4.8 14.5 0.00 0.00 0.00 55 1012.4
20260504192501 27 270 4.8 12.9 0.00 0.00 0.00 56 1012.3
20260504192004 27 244 4.8 16.1 0.00 0.00 0.00 55 1012.4
20260504191516 27 122 4.8 16.1 0.00 0.00 0.00 60 1012.5
20260504191002 26 260 6.4 17.7 0.00 0.00 0.00 56 1012.5
20260504190026 26 208 8.0 22.5 0.00 0.00 0.00 57 1012.7
20260504185500 26 274 6.4 14.5 0.00 0.00 0.00 57 1012.9
20260504185002 26 206 6.4 16.1 0.00 0.00 0.00 55 1013.0
20260504184515 26 156 6.4 17.7 0.00 0.00 0.00 56 1012.9
20260504184001 26 162 6.4 16.1 0.00 0.00 0.00 56 1013.0
20260504183500 26 173 6.4 17.7 0.00 0.00 0.00 56 1013.0
20260504181516 26 140 6.4 20.9 0.00 0.00 0.00 59 1013.1
20260504181001 26 177 6.4 20.9 0.00 0.00 0.00 59 1013.2
20260504180501 26 130 6.4 16.1 0.00 0.00 0.00 59 1013.4
20260504180026 26 179 6.4 17.7 0.00 0.00 0.00 60 1013.4
20260504175000 26 142 6.4 17.7 0.00 0.00 0.00 57 1013.6
20260504174515 26 179 6.4 17.7 0.00 0.00 0.00 57 1013.6
20260504174001 26 85 6.4 14.5 0.00 0.00 0.00 59 1013.7
20260504173500 25 217 8.0 19.3 0.00 0.00 0.00 59 1013.8
20260504173027 26 170 8.0 17.7 0.00 0.00 0.00 57 1013.8
20260504172000 25 158 6.4 17.7 0.00 0.00 0.00 59 1013.9
20260504171515 25 166 6.4 17.7 0.00 0.00 0.00 58 1014.2
20260504171001 25 141 6.4 17.7 0.00 0.00 0.00 59 1014.3
20260504141002 21 163 4.8 14.5 0.00 0.00 0.00 65 1015.0
20260504140500 21 220 4.8 14.5 0.00 0.00 0.00 65 1015.2
20260504130459 17 108 3.2 6.4 0.00 0.00 0.00 73 1015.1
20260504110459 13 131 0.0 1.6 0.00 0.00 0.00 81 1014.5
20260504100500 14 145 0.0 1.6 0.00 0.00 0.00 81 1014.9
20260504081959 16 186 0.0 1.6 0.00 0.00 0.00 75 1015.4
20260504080959 15 186 0.0 3.2 0.00 0.00 0.00 77 1015.6
20260504080458 15 166 0.0 1.6 0.00 0.00 0.00 77 1015.6
20260504050503 17 191 0.0 1.6 0.00 0.00 0.00 68 1017.5
20260504045502 17 193 0.0 3.2 0.00 0.00 0.00 67 1017.6
20260504045004 17 186 1.6 4.8 0.00 0.00 0.00 67 1017.5
20260504044003 18 171 1.6 4.8 0.00 0.00 0.00 66 1017.6
20260504043503 18 183 0.0 3.2 0.00 0.00 0.00 65 1017.7
20260504043026 18 179 0.0 3.2 0.00 0.00 0.00 65 1017.5
20260504042502 18 179 0.0 3.2 0.00 0.00 0.00 64 1017.6
20260504042002 18 187 1.6 3.2 0.00 0.00 0.00 64 1017.6
20260504041517 18 134 1.6 4.8 0.00 0.00 0.00 65 1017.5
20260504041003 18 191 1.6 4.8 0.00 0.00 0.00 63 1017.7
20260504040502 18 142 1.6 3.2 0.00 0.00 0.00 63 1017.7
20260504040026 18 175 1.6 4.8 0.00 0.00 0.00 62 1017.6
20260504035503 18 184 1.6 4.8 0.00 0.00 0.00 62 1017.6
20260504034517 19 159 1.6 11.3 0.00 0.00 0.00 60 1017.7
20260504034004 19 186 1.6 11.3 0.00 0.00 0.00 59 1017.6
20260504033025 19 199 3.2 6.4 0.00 0.00 0.00 59 1017.7
20260504032004 19 179 1.6 4.8 0.00 0.00 0.00 58 1017.7
20260504031517 20 157 1.6 8.0 0.00 0.00 0.00 58 1017.6
20260504031002 20 187 1.6 8.0 0.00 0.00 0.00 57 1017.6
20260504030502 20 182 3.2 6.4 0.00 0.00 0.00 57 1017.6
20260504030028 20 203 3.2 8.0 0.00 0.00 0.00 57 1017.5
20260504025502 20 156 3.2 6.4 0.00 0.00 0.00 56 1017.5
20260504025003 20 158 1.6 4.8 0.00 0.00 0.00 56 1017.2
20260504024003 20 145 3.2 11.3 0.00 0.00 0.00 56 1017.2
20260504023502 20 139 3.2 11.3 0.00 0.00 0.00 54 1017.1
20260504023025 20 155 3.2 11.3 0.00 0.00 0.00 55 1017.2
20260504022502 21 146 3.2 11.3 0.00 0.00 0.00 53 1017.2
20260504022004 21 171 3.2 11.3 0.00 0.00 0.00 53 1017.3
20260504021516 21 156 3.2 11.3 0.00 0.00 0.00 52 1017.3
20260504021002 21 170 4.8 11.3 0.00 0.00 0.00 52 1017.2
20260504020501 21 159 4.8 11.3 0.00 0.00 0.00 52 1017.1
20260504020030 21 189 3.2 11.3 0.00 0.00 0.00 52 1017.0
20260504015503 21 182 3.2 12.9 0.00 0.00 0.00 51 1017.0
20260504015003 21 180 3.2 12.9 0.00 0.00 0.00 51 1017.0
20260504014517 21 185 4.8 9.7 0.00 0.00 0.00 50 1017.0
20260504014003 21 166 3.2 11.3 0.00 0.00 0.00 50 1016.9
20260504013503 22 168 4.8 11.3 0.00 0.00 0.00 50 1016.8
20260504013029 22 167 3.2 11.3 0.00 0.00 0.00 51 1016.8
20260504012502 22 168 3.2 8.0 0.00 0.00 0.00 50 1016.9
20260504012004 22 171 4.8 11.3 0.00 0.00 0.00 49 1016.7
20260504011517 22 162 3.2 8.0 0.00 0.00 0.00 49 1016.6
20260504010502 22 179 3.2 12.9 0.00 0.00 0.00 48 1016.7
20260504010025 22 204 3.2 6.4 0.00 0.00 0.00 48 1016.7
20260504005002 22 135 3.2 14.5 0.00 0.00 0.00 48 1016.6
20260504004516 23 166 4.8 14.5 0.00 0.00 0.00 46 1016.6
20260504003025 23 155 3.2 11.3 0.00 0.00 0.00 46 1016.7
20260504002501 23 160 3.2 16.1 0.00 0.00 0.00 46 1016.7
20260504002002 23 214 4.8 16.1 0.00 0.00 0.00 45 1016.6
20260504001516 23 157 6.4 12.9 0.00 0.00 0.00 44 1016.7
20260504001001 24 111 6.4 14.5 0.00 0.00 0.00 43 1016.7
20260504000501 24 175 4.8 16.1 0.00 0.00 0.00 43 1016.6
20260504000024 24 200 4.8 16.1 0.00 0.00 0.00 41 1016.7
20260503235500 25 200 4.8 11.3 0.00 0.00 0.00 38 1016.7
20260503235002 25 154 3.2 11.3 0.00 0.00 0.00 35 1016.8
20260503234516 25 89 3.2 11.3 0.00 0.00 0.00 37 1016.8
20260503234002 25 227 3.2 12.9 0.00 0.00 0.00 36 1016.7
20260503233501 25 139 4.8 12.9 0.00 0.00 0.00 35 1016.8
20260503233025 25 144 3.2 12.9 0.00 0.00 0.00 36 1016.9
20260503232500 25 181 4.8 11.3 0.00 0.00 0.00 36 1016.8
20260503232002 25 98 4.8 11.3 0.00 0.00 0.00 34 1016.9
20260503231515 26 175 4.8 12.9 0.00 0.00 0.00 33 1017.0
20260503231002 26 250 4.8 12.9 0.00 0.00 0.00 36 1016.9
20260503230502 26 204 4.8 9.7 0.00 0.00 0.00 34 1016.9
20260503230027 26 152 4.8 12.9 0.00 0.00 0.00 37 1016.9
20260503225001 26 148 6.4 16.1 0.00 0.00 0.00 35 1017.0
20260503224516 26 142 4.8 16.1 0.00 0.00 0.00 35 1017.1
20260503223500 26 2 4.8 11.3 0.00 0.00 0.00 35 1017.1
20260503222501 26 196 3.2 12.9 0.00 0.00 0.00 36 1017.3
20260503222002 26 119 3.2 12.9 0.00 0.00 0.00 36 1017.3
20260503221515 26 193 3.2 8.0 0.00 0.00 0.00 36 1017.6